Home   Weather   Changsha   Past weeks

Flag for China Past Weather in Changsha, Hunan, China — Yesterday and Last 2 Weeks

Now
45 °F

Fog.


Feels Like: 41 °F
Forecast: 42 / 48 °F
Wind: 6 mph from North

Location: Changsha

Current Time: Jan 19, 2017 at 4:30:58 am

Latest Report: Jan 19, 2017 at 3:00 am


Visibility: 1 mi

Pressure: 30.33 "Hg

Humidity: 87%

Dew Point: 41 °F

Location of ChangshaLocation

Past Weather in Changsha — Graph

°F

Changsha Temperature Yesterday

Maximum temperature yesterday: 46 °F (at 12:00 pm)
Minimum temperature yesterday: 43 °F (at 5:00 am)
Average temperature yesterday: 45 °F

High & Low Weather Summary for the Past Weeks

 TemperatureHumidityPressure
High66 °F (Jan 4, 2:00 pm)94% (Jan 5, 10:00 am)30.39 "Hg (Jan 5, 10:00 am)
Low34 °F (Jan 16, 6:00 am)38% (Jan 13, 4:00 pm)30.01 "Hg (Jan 4, 3:00 pm)
Average46 °F83%30.22 "Hg
* Reported Jan 4 3:00 am — Jan 19 3:00 am, Changsha, Weather by CustomWeather, © 2017

Note: Actual official high and low records may vary slightly from our data, if they occured in-between our weather recording intervals... More about our weather records

Advertising

Changsha Weather History for the Previous 24 Hours

Scroll right to see more
 ConditionsComfort  
Time TempWeatherWind HumidityBarometerVisibility
3:00 am
Thu, Jan 19
45 °FFog.6 mph87%30.33 "Hg1 mi
2:00 am45 °FFog.6 mph87%30.33 "Hg2 mi
1:00 am45 °FFog.6 mph87%30.36 "Hg2 mi
12:00 am45 °FLight rain. Fog.8 mph87%30.36 "Hg1 mi
11:00 pm
Wed, Jan 18
45 °FLight rain. Fog.8 mph87%30.36 "Hg1 mi
10:00 pm45 °FLight rain. Fog.6 mph87%30.36 "Hg1 mi
9:00 pm45 °FFog.8 mph87%30.33 "Hg2 mi
8:00 pm45 °FFog.8 mph87%30.30 "Hg1 mi
7:00 pm45 °FFog.8 mph87%30.30 "Hg1 mi
6:00 pm45 °FDrizzle. Fog.8 mph87%30.30 "Hg1 mi
5:00 pm45 °FDrizzle. Fog.8 mph87%30.30 "Hg1 mi
4:00 pm45 °FDrizzle. Fog.8 mph87%30.27 "Hg1 mi
3:00 pm46 °FFog.6 mph82%30.27 "Hg2 mi
2:00 pm46 °FFog.6 mph82%30.27 "Hg2 mi
1:00 pm45 °FDrizzle. Fog.8 mph87%30.30 "Hg2 mi
12:00 pm46 °FFog.6 mph82%30.33 "Hg1 mi
11:00 am45 °FFog.1 mph87%30.36 "Hg1 mi
10:00 am45 °FDrizzle. Fog.6 mph87%30.36 "Hg1 mi
9:00 am45 °FLight rain. Fog.6 mph87%30.36 "Hg1 mi
8:00 am43 °FFog.3 mph93%30.36 "Hg1 mi
7:00 am43 °FFog.3 mph93%30.33 "Hg2 mi
6:00 am43 °FFog.3 mph93%30.30 "Hg1 mi
5:00 am43 °FFog.3 mph93%30.30 "Hg1 mi
4:00 am45 °FSprinkles. Fog.6 mph87%30.33 "Hg1 mi
Weather by CustomWeather, © 2017

See weather overviewHow to use our weather pages